Simultaneous Nadir Overpasses (SNOs) Predictions

Prediction of SNOs between METOP-B and TERRA Satellite Orbit:

Table of predicted SNOs for the next 14.0 days since TLE Epoch: 5/24/2025
Index Date (METOP-B) Time (METOP-B) Lat,Lon (METOP-B) SZA (METOP-B ) Date (TERRA) Time (TERRA) Lat,Lon (TERRA) SZA (TERRA ) Distance(km) Time Diff (sec)
1 05/25/2025 15:14:10 78.32, -45.21 57.21 05/25/2025 15:14:48 78.31, -45.31 57.21 2.23 38
2 05/25/2025 16:04:42 -78.69, 124.27 122.38 05/25/2025 16:04:00 -78.69, 124.25 122.38 0.52 42
3 05/28/2025 04:53:45 -78.37, -69.87 123.17 05/28/2025 04:53:53 -78.37, -69.84 123.16 0.71 8
4 05/28/2025 05:44:14 78.79, 99.93 57.31 05/28/2025 05:43:01 78.79, 99.95 57.30 0.37 73
5 05/30/2025 17:42:49 -78.03, 96.06 123.92 05/30/2025 17:43:47 -78.03, 96.08 123.92 0.38 58
6 05/30/2025 18:33:16 78.54, -93.84 56.64 05/30/2025 18:32:53 78.54, -93.83 56.63 0.28 23
7 06/02/2025 07:22:18 78.27, 72.42 56.00 06/02/2025 07:22:45 78.27, 72.37 56.00 1.24 27
8 06/02/2025 08:12:49 -78.70,-117.83 123.54 06/02/2025 08:11:56 -78.70,-117.83 123.54 0.25 53
9 06/04/2025 20:13:23 72.16,-138.90 50.27 06/04/2025 20:14:36 71.95,-137.55 49.92 51.45 73



Historial Predications of SNOs between METOP-B and TERRA
